Regional Weather Roundup
Issued by NWS

Home | Current Version | Previous Version | Text Only | Print | Product List | Glossary Off
Versions: 1 2 3 4 5 6 7 8 9 10 11 12 13 14 15 16 17 18 19 20 21 22 23 24 25 26 27 28 29 30 31 32 33 34 35 36 37 38 39 40 41 42 43 44 45 46 47 48 49 50

718
ASUS43 KOAX 200110
RWRNE

WEATHER ROUNDUP FOR NEBRASKA
NATIONAL WEATHER SERVICE OMAHA NE
700 PM CST SUN FEB 19 2017

NOTES: SATELLITE DATA IS BEING USED TO AUGMENT CLOUD COVER ABOVE
       12000 FEET.
       "FAIR" INDICATES FEW OR NO CLOUDS BELOW 12,000 FEET WITH NO
       SIGNIFICANT WEATHER AND/OR OBSTRUCTIONS TO VISIBILITY.

  * THESE STATIONS DO NOT REPORT WEATHER SUCH AS RAIN...SNOW OR FOG.

NEZ001>004-019>022-054>056-200200-
NEBRASKA PANHANDLE

CITY           SKY/WX    TMP DP  RH WIND       PRES   REMARKS
SCOTTSBLUFF    CLOUDY    53  31  42 NE9       29.56F
ALLIANCE       CLOUDY    49  33  54 E7        29.57F
CHADRON        CLOUDY    55  33  43 S10       29.56S
KIMBALL        CLOUDY    54  32  44 S8        29.59R
SIDNEY         CLOUDY    55  35  47 S13       29.58S
$$

NEZ057>060-069>072-079>082-200200-
SOUTHWEST NEBRASKA

CITY           SKY/WX    TMP DP  RH WIND       PRES   REMARKS
NORTH PLATTE   MOCLDY    58  49  72 SE8       29.63R
IMPERIAL       CLOUDY    64  36  35 S30       29.60F
LEXINGTON      CLOUDY    64  44  49 SE20      29.68R
MCCOOK         MOCLDY    68  48  48 S17       29.66R
OGALLALA       CLOUDY    63  42  47 SE12      29.58F
$$

NEZ005>010-023>029-035>040-094-200200-
NORTH CENTRAL NEBRASKA

CITY           SKY/WX    TMP DP  RH WIND       PRES   REMARKS
VALENTINE      CLOUDY    58  39  49 S8        29.58F
AINSWORTH      PTCLDY    58  45  61 S13       29.62S
BROKEN BOW     CLOUDY    63  45  51 S12       29.67S
O`NEILL        CLOUDY    63  45  51 S15       29.66R
ORD            CLOUDY    63  44  50 SE12      29.68R
THEDFORD       CLOUDY    56  44  63 SE8       29.65R
$$

NEZ041-046>049-061>064-073>077-083>087-200200-
SOUTH CENTRAL NEBRASKA

CITY           SKY/WX    TMP DP  RH WIND       PRES   REMARKS
GRAND ISLAND   CLOUDY    57  50  77 S17       29.75R
AURORA         CLOUDY    56  50  79 S18       29.77R
HASTINGS       CLOUDY    58  48  69 S16G22    29.77R
HEBRON         CLOUDY    57  50  77 S13       29.80S
HOLDREGE       PTCLDY    59  46  61 SE18G24   29.72R
KEARNEY *      CLOUDY    61  46  59 S21G26    29.73R
YORK           MOCLDY    57  50  77 S14G21    29.78R
$$

NEZ011>018-030>034-042>045-200200-
NORTHEAST NEBRASKA

CITY           SKY/WX    TMP DP  RH WIND       PRES   REMARKS
NORFOLK        PTCLDY    60  48  64 S16       29.72R
ALBION         CLOUDY    60  49  66 S10       29.72S
BLAIR          CLOUDY    64  53  65 S12       29.80R
FREMONT        PTCLDY    63  51  65 SE12G20   29.79R
TEKAMAH        CLOUDY    56  49  77 SE10      29.77S
WAYNE          PTCLDY    58  50  73 S13       29.73S
$$

NEZ050>053-065>068-078-088>093-200200-
SOUTHEAST NEBRASKA

CITY           SKY/WX    TMP DP  RH WIND       PRES   REMARKS
LINCOLN        CLOUDY    60  51  72 S15       29.81R
OMAHA EPPLEY   CLOUDY    63  51  65 SE13      29.80S
BEATRICE       PTCLDY    58  52  80 S13       29.82R
FALLS CITY     PTCLDY    62  54  74 S9        29.85R
NEBRASKA CITY  PTCLDY    62  48  62 S10       29.83S
PLATTSMOUTH    CLOUDY    65  49  57 S12       29.82R
$$

NEZ044-045-051>053-067-200200-
OMAHA AREA

CITY           SKY/WX    TMP DP  RH WIND       PRES   REMARKS
OMAHA EPPLEY   CLOUDY    63  51  65 SE13      29.80S
BLAIR          CLOUDY    64  53  65 S12       29.80R
FREMONT        PTCLDY    63  51  65 SE12G20   29.79R
MILLARD        CLOUDY    64  53  68 SE7       29.80R
OFFUTT AFB     CLOUDY    63  54  74 S9        29.81R
PLATTSMOUTH    CLOUDY    65  49  57 S12       29.82R
WAHOO          FAIR      60  50  69 S15       29.79R
$$




USA.gov is the U.S. government's official web portal to all federal, state and local government web resources and services.